Regional Weather Roundup
Issued by NWS Upton, NY

Current Version | Previous Version | Text Only | Print | Product List | Glossary On
Versions: 1 2 3 4 5 6 7 8 9 10 11 12 13 14 15 16 17 18 19 20 21 22 23 24 25 26 27 28 29 30 31 32 33 34 35 36 37 38 39 40 41 42 43 44 45 46 47 48 49 50
000 ASUS41 KOKX 020304 RWROKX REGIONAL WEATHER ROUNDUP NATIONAL WEATHER SERVICE NEW YORK NY 1100 PM EDT TUE SEP 01 2015 NOTE: "FAIR" INDICATES FEW OR NO CLOUDS BELOW 12,000 FEET WITH NO SIGNIFICANT WEATHER AND/OR OBSTRUCTIONS TO VISIBILITY. NYZ071-072-176-178-NJZ106-104-020400- NEW YORK CITY METRO AREA CITY SKY/WX TMP DP RH WIND PRES REMARKS CENTRAL PARK CLEAR 78 63 59 CALM 30.08R LAGUARDIA APRT CLEAR 77 66 68 S6 30.05R KENNEDY INTL PTCLDY 76 69 79 S3 30.06S NEWARK/LIBERTY CLEAR 78 66 66 S5 30.05R BRNX BOT. GARD N/A 73 66 78 E2 30.05F TETERBORO CLEAR 76 64 66 S3 30.04R $$ NYZ177-179-078>081-020400- LONG ISLAND NEW YORK CITY SKY/WX TMP DP RH WIND PRES REMARKS FARMINGDALE CLEAR 74 68 81 SW3 30.06S ISLIP CLEAR 73 68 84 S5 30.04S SHIRLEY CLEAR 69 67 93 CALM 30.06S WESTHAMPTON PTCLDY 64 60 87 CALM 30.07S MONTAUK POINT N/A 72 69 90 CALM 30.07S $$ NYZ052-065-067-020400- HUDSON VALLEY CITY SKY/WX TMP DP RH WIND PRES REMARKS WHITE PLAINS CLEAR 69 64 84 CALM 30.06S NEWBURGH CLEAR 70 64 83 CALM 30.06S MONTGOMERY CLEAR 64 62 93 SW3 30.05S POUGHKEEPSIE CLEAR 67 62 84 CALM 30.04S ALBANY CLEAR 71 64 78 E3 30.04S $$ NJZ001-105-106-008-010-013-015-019>022-104-020400- NEW JERSEY CITY SKY/WX TMP DP RH WIND PRES REMARKS NEWARK/LIBERTY CLEAR 78 66 66 S5 30.05R TETERBORO CLEAR 76 64 66 S3 30.04R CALDWELL CLEAR 73 64 73 CALM 30.06R MORRISTOWN CLEAR 66 61 82 CALM 30.06S SOMERVILLE CLEAR 70 65 84 CALM 30.04R SUSSEX LGT RAIN 65 62 90 CALM 30.07R ANDOVER N/A 65 64 97 CALM 30.08R TRENTON PTCLDY 75 67 76 S5 30.06R MILLVILLE CLEAR 72 70 93 E3 30.05S FOG ATLANTIC CITY PTCLDY 74 72 93 E3 30.05F FOG WRIGHTSTOWN CLEAR 71 69 91 CALM 30.04R TOMS RIVER CLEAR 66 63 88 CALM 30.06S BELMAR CLEAR 73 64 73 CALM 30.06S $$ PAZ047>061-062-071-020400- EASTERN PENNSYLVANIA CITY SKY/WX TMP DP RH WIND PRES REMARKS PHILADELPHIA FAIR 78 71 79 CALM 30.06S ALLENTOWN CLEAR 74 65 73 E3 30.06R SCRANTON CLEAR 71 61 70 E6 30.08R $$ CTZ002-004>006-009-010-012-RIZ004-006-007-MAZ004-011-015-020400- SOUTHERN NEW ENGLAND IN CT CITY SKY/WX TMP DP RH WIND PRES REMARKS BRADLEY INTL CLEAR 70 63 78 S3 30.04S HARTFORD CLEAR 71 66 84 CALM 30.04F DANBURY CLEAR 66 62 87 CALM 30.08S WTRBRY/OXFORD CLEAR 66 57 72 CALM 30.09R BRIDGEPORT CLEAR 75 66 73 SW5 30.05S MERIDEN CLEAR 68 63 84 CALM 30.05F NEW HAVEN CLEAR 71 67 87 S3 30.06S CHESTER NOT AVBL GROTON CLEAR 66 66 100 CALM 30.05F WILLIMANTIC CLEAR 66 62 87 CALM 30.06F IN RI CITY SKY/WX TMP DP RH WIND PRES REMARKS PROVIDENCE CLEAR 67 63 87 S3 30.06F BLOCK ISLAND CLEAR 70 66 88 S3 30.06S WESTERLY CLEAR 65 63 93 CALM 30.06F IN MA CITY SKY/WX TMP DP RH WIND PRES REMARKS BOSTON CLEAR 71 63 75 SW7 30.04S WORCESTER CLEAR 65 59 81 SW8 30.08S WESTFIELD CLEAR 65 62 90 CALM 30.05S PROVINCETOWN N/A 66 59 77 S8 30.06S NANTUCKET CLEAR 62 60 93 S6 30.07R $$ ANZ330-335-338-340-345-350-353-355-020400- COASTAL MARINE OBSERVATIONS STATION/POSITION TIME SKY/WX TEMP WIND PRES VSBY WAVE AIR SEA DIR/SP/G HT/PER (UTC) (F) (DEG/KT/KT) (MB) (MI) (FT/S) NY HARB ENTRANCE 0150 76 77 190/ 6/ 6 1017.2 2/ 8 4S FIRE IS NOT AVBL 20S FIRE ISLAND 0150 74 75 150/ 6/ 8 1017.3 2/ 8 GREAT SOUTH BAY 0200 74 79 210/ 4/ 6 N/A 23SW MTP 0250 73 72 180/ 4/ 4 1017.2 2/ 8 HUDSON CANYON NOT AVBL KINGS POINT 0200 75 72 170/ 3/ 5 1016.9 EXECUTION ROCKS 0200 76 140/ 4/ 4 N/A CENTRAL LI SOUND NOT AVBL EASTERN LI SOUND 0200 72 71 200/ 6/ 6 N/A ROBBINS REEF 0200 77 150/ 5/ 6 1016.3 $$ >>>>>>>>>>>>>>>>>>>>>>>>>>>> KEY <<<<<<<<<<<<<<<<<<<<<<<<<<< > < > SKY/WX - SKY CONDITION/PRESENT WEATHER < > TMP - TEMPERATURE IN FAHRENHEIT < > DP - DEWPOINT IN FAHRENHEIT < > RH - RELATIVE HUMIDITY IN PERCENT < > WIND - DIRECTION AND SPEED IN MPH < > PRES - MEAN SEA LEVEL PRESSURE IN INCHES OF HG < > WCI - WIND CHILL INDEX < > VSB - VISIBILITY IN MILES < > HX - HEAT INDEX < > TC - TEMPERATURE IN CELSIUS < > VRB - VARIABLE WIND DIRECTION < > < >>>>>>>>>>>>>>>>>>>>>>>>>>>> KEY <<<<<<<<<<<<<<<<<<<<<<<<<<<

USA.gov is the U.S. government's official web portal to all federal, state and local government web resources and services.